Time,TemperatureF,DewpointF,PressureIn,WindDirection,WindDirectionDegrees,WindSpeedMPH,WindSpeedGustMPH,Humidity,HourlyPrecipIn,Conditions,Clouds,dailyrainin,SolarRadiationWatts/m^2,SoftwareType,DateUTC
2013-11-04 00:01:00,37.4,26.0,30.50,ENE,61,0.0,0.0,63,0.00,,,0.00,0,LWC V2.00 B2112,2013-11-04 05:01:00,
2013-11-04 00:06:00,37.2,26.2,30.50,ENE,61,0.0,3.0,64,0.00,,,0.00,0,LWC V2.00 B2112,2013-11-04 05:06:00,
2013-11-04 00:11:00,37.0,26.0,30.50,ENE,61,0.0,1.0,64,0.00,,,0.00,0,LWC V2.00 B2112,2013-11-04 05:11:00,
2013-11-04 00:16:00,36.8,26.2,30.50,ENE,60,0.0,2.0,65,0.00,,,0.00,0,LWC V2.00 B2112,2013-11-04 05:16:00,
2013-11-04 00:21:00,36.7,26.1,30.50,ENE,60,1.0,2.0,65,0.00,,,0.00,0,LWC V2.00 B2112,2013-11-04 05:21:00,
2013-11-04 00:26:00,36.5,26.2,30.50,ENE,61,2.0,3.0,66,0.00,,,0.00,0,LWC V2.00 B2112,2013-11-04 05:26:00,
2013-11-04 00:31:00,36.5,26.2,30.51,ENE,62,0.0,3.0,66,0.00,,,0.00,0,LWC V2.00 B2112,2013-11-04 05:31:00,
2013-11-04 00:36:00,36.2,26.0,30.51,ENE,62,0.0,4.0,66,0.00,,,0.00,0,LWC V2.00 B2112,2013-11-04 05:36:00,
2013-11-04 00:41:00,36.2,26.0,30.51,ENE,62,0.0,2.0,66,0.00,,,0.00,0,LWC V2.00 B2112,2013-11-04 05:41:00,
2013-11-04 00:46:00,36.1,26.2,30.51,ENE,62,3.0,4.0,67,0.00,,,0.00,0,LWC V2.00 B2112,2013-11-04 05:46:00,
2013-11-04 00:51:00,36.0,26.1,30.51,NE,53,3.0,6.0,67,0.00,,,0.00,0,LWC V2.00 B2112,2013-11-04 05:51:00,
2013-11-04 00:56:00,36.0,25.4,30.51,ENE,68,3.0,6.0,65,0.00,,,0.00,0,LWC V2.00 B2112,2013-11-04 05:56:00,
2013-11-04 01:01:00,36.1,25.1,30.51,ENE,73,1.0,4.0,64,0.00,,,0.00,0,LWC V2.00 B2112,2013-11-04 06:01:00,
2013-11-04 01:06:00,36.2,24.8,30.52,ENE,64,3.0,5.0,63,0.00,,,0.00,0,LWC V2.00 B2112,2013-11-04 06:06:00,
2013-11-04 01:11:00,36.1,25.1,30.52,ENE,61,5.0,5.0,64,0.00,,,0.00,0,LWC V2.00 B2112,2013-11-04 06:11:00,
2013-11-04 01:16:00,35.8,24.8,30.52,NE,47,3.0,4.0,64,0.00,,,0.00,0,LWC V2.00 B2112,2013-11-04 06:16:00,
2013-11-04 01:21:00,35.7,24.7,30.52,NE,53,3.0,4.0,64,0.00,,,0.00,0,LWC V2.00 B2112,2013-11-04 06:21:00,
2013-11-04 01:26:00,35.5,24.9,30.53,ENE,68,0.0,4.0,65,0.00,,,0.00,0,LWC V2.00 B2112,2013-11-04 06:26:00,
2013-11-04 01:31:00,35.3,24.7,30.53,NE,54,2.0,3.0,65,0.00,,,0.00,0,LWC V2.00 B2112,2013-11-04 06:31:00,
2013-11-04 01:36:00,35.1,24.9,30.53,NE,54,2.0,3.0,66,0.00,,,0.00,0,LWC V2.00 B2112,2013-11-04 06:36:00,
2013-11-04 01:41:00,35.2,24.6,30.53,ENE,66,1.0,5.0,65,0.00,,,0.00,0,LWC V2.00 B2112,2013-11-04 06:41:00,
2013-11-04 01:46:00,35.2,24.6,30.53,ENE,58,6.0,6.0,65,0.00,,,0.00,0,LWC V2.00 B2112,2013-11-04 06:46:00,
2013-11-04 01:51:00,35.1,24.5,30.53,ENE,66,4.0,5.0,65,0.00,,,0.00,0,LWC V2.00 B2112,2013-11-04 06:51:00,
2013-11-04 01:56:00,35.1,24.5,30.54,NE,50,3.0,5.0,65,0.00,,,0.00,0,LWC V2.00 B2112,2013-11-04 06:56:00,
2013-11-04 02:01:00,34.9,24.3,30.54,NE,53,3.0,5.0,65,0.00,,,0.00,0,LWC V2.00 B2112,2013-11-04 07:01:00,
2013-11-04 02:06:00,34.7,24.5,30.54,ENE,60,2.0,3.0,66,0.00,,,0.00,0,LWC V2.00 B2112,2013-11-04 07:06:00,
2013-11-04 02:11:00,34.6,24.4,30.54,ENE,73,3.0,3.0,66,0.00,,,0.00,0,LWC V2.00 B2112,2013-11-04 07:11:00,
2013-11-04 02:16:00,34.6,24.4,30.54,ENE,64,2.0,3.0,66,0.00,,,0.00,0,LWC V2.00 B2112,2013-11-04 07:16:00,
2013-11-04 02:21:00,34.4,24.2,30.54,NE,55,0.0,3.0,66,0.00,,,0.00,0,LWC V2.00 B2112,2013-11-04 07:21:00,
2013-11-04 02:26:00,34.2,24.4,30.55,ENE,57,2.0,3.0,67,0.00,,,0.00,0,LWC V2.00 B2112,2013-11-04 07:26:00,
2013-11-04 02:31:00,34.0,24.2,30.55,ENE,59,5.0,5.0,67,0.00,,,0.00,0,LWC V2.00 B2112,2013-11-04 07:31:00,
2013-11-04 02:36:00,33.9,24.1,30.55,ENE,65,1.0,4.0,67,0.00,,,0.00,0,LWC V2.00 B2112,2013-11-04 07:36:00,
2013-11-04 02:41:00,33.8,24.0,30.56,ENE,68,3.0,4.0,67,0.00,,,0.00,0,LWC V2.00 B2112,2013-11-04 07:41:00,
2013-11-04 02:46:00,33.7,23.9,30.56,ENE,64,1.0,3.0,67,0.00,,,0.00,0,LWC V2.00 B2112,2013-11-04 07:46:00,
2013-11-04 02:51:00,33.6,24.2,30.56,ENE,63,4.0,6.0,68,0.00,,,0.00,0,LWC V2.00 B2112,2013-11-04 07:51:00,
2013-11-04 02:56:00,33.5,24.1,30.56,ENE,57,0.0,3.0,68,0.00,,,0.00,0,LWC V2.00 B2112,2013-11-04 07:56:00,
2013-11-04 03:01:00,33.6,23.8,30.56,NE,50,0.0,3.0,67,0.00,,,0.00,0,LWC V2.00 B2112,2013-11-04 08:01:00,
2013-11-04 03:06:00,33.5,23.7,30.57,ENE,58,1.0,5.0,67,0.00,,,0.00,0,LWC V2.00 B2112,2013-11-04 08:06:00,
2013-11-04 03:11:00,33.2,23.8,30.57,ENE,58,0.0,3.0,68,0.00,,,0.00,0,LWC V2.00 B2112,2013-11-04 08:11:00,
2013-11-04 03:16:00,33.1,24.1,30.57,ENE,58,0.0,2.0,69,0.00,,,0.00,0,LWC V2.00 B2112,2013-11-04 08:16:00,
2013-11-04 03:21:00,33.0,24.0,30.57,ENE,58,0.0,0.0,69,0.00,,,0.00,0,LWC V2.00 B2112,2013-11-04 08:21:00,
2013-11-04 03:26:00,32.9,24.2,30.57,ENE,58,0.0,0.0,70,0.00,,,0.00,0,LWC V2.00 B2112,2013-11-04 08:26:00,
2013-11-04 03:31:00,32.7,24.7,30.57,ENE,58,0.0,0.0,72,0.00,,,0.00,0,LWC V2.00 B2112,2013-11-04 08:31:00,
2013-11-04 03:36:00,32.3,24.6,30.57,ENE,58,0.0,0.0,73,0.00,,,0.00,0,LWC V2.00 B2112,2013-11-04 08:36:00,
2013-11-04 03:41:00,31.9,24.6,30.58,ENE,58,0.0,0.0,74,0.00,,,0.00,0,LWC V2.00 B2112,2013-11-04 08:41:00,
2013-11-04 03:46:00,31.9,24.6,30.58,ENE,58,0.0,0.0,74,0.00,,,0.00,0,LWC V2.00 B2112,2013-11-04 08:46:00,
2013-11-04 03:51:00,31.9,24.6,30.58,ENE,58,0.0,0.0,74,0.00,,,0.00,0,LWC V2.00 B2112,2013-11-04 08:51:00,
2013-11-04 03:56:00,31.7,24.4,30.58,ENE,58,0.0,0.0,74,0.00,,,0.00,0,LWC V2.00 B2112,2013-11-04 08:56:00,
2013-11-04 04:01:00,31.8,24.1,30.58,ENE,58,0.0,0.0,73,0.00,,,0.00,0,LWC V2.00 B2112,2013-11-04 09:01:00,
2013-11-04 04:06:00,31.7,24.4,30.58,ENE,58,0.0,0.0,74,0.00,,,0.00,0,LWC V2.00 B2112,2013-11-04 09:06:00,
2013-11-04 04:11:00,31.5,24.8,30.59,ENE,58,0.0,0.0,76,0.00,,,0.00,0,LWC V2.00 B2112,2013-11-04 09:11:00,
2013-11-04 04:16:00,31.2,25.2,30.59,ENE,58,0.0,0.0,78,0.00,,,0.00,0,LWC V2.00 B2112,2013-11-04 09:16:00,
2013-11-04 04:21:00,31.0,25.3,30.59,ENE,58,0.0,0.0,79,0.00,,,0.00,0,LWC V2.00 B2112,2013-11-04 09:21:00,
2013-11-04 04:26:00,30.7,25.0,30.59,ENE,58,0.0,0.0,79,0.00,,,0.00,0,LWC V2.00 B2112,2013-11-04 09:26:00,
2013-11-04 04:31:00,30.6,25.2,30.60,ENE,58,0.0,0.0,80,0.00,,,0.00,0,LWC V2.00 B2112,2013-11-04 09:31:00,
2013-11-04 04:36:00,30.3,25.2,30.59,ENE,58,0.0,0.0,81,0.00,,,0.00,0,LWC V2.00 B2112,2013-11-04 09:36:00,
2013-11-04 04:41:00,30.3,24.9,30.59,ENE,58,0.0,0.0,80,0.00,,,0.00,0,LWC V2.00 B2112,2013-11-04 09:41:00,
2013-11-04 04:46:00,30.2,25.1,30.59,ENE,58,0.0,0.0,81,0.00,,,0.00,0,LWC V2.00 B2112,2013-11-04 09:46:00,
2013-11-04 04:51:00,29.8,25.0,30.59,ENE,58,0.0,0.0,82,0.00,,,0.00,0,LWC V2.00 B2112,2013-11-04 09:51:00,
2013-11-04 04:56:00,29.9,24.8,30.59,ENE,58,0.0,0.0,81,0.00,,,0.00,0,LWC V2.00 B2112,2013-11-04 09:56:00,
2013-11-04 05:01:00,30.1,24.7,30.59,ENE,58,0.0,0.0,80,0.00,,,0.00,0,LWC V2.00 B2112,2013-11-04 10:01:00,
2013-11-04 05:06:00,30.4,24.4,30.60,ENE,58,0.0,0.0,78,0.00,,,0.00,0,LWC V2.00 B2112,2013-11-04 10:06:00,
2013-11-04 05:11:00,30.6,24.3,30.60,ENE,58,0.0,0.0,77,0.00,,,0.00,0,LWC V2.00 B2112,2013-11-04 10:11:00,
2013-11-04 05:16:00,30.6,24.6,30.59,ENE,58,0.0,0.0,78,0.00,,,0.00,0,LWC V2.00 B2112,2013-11-04 10:16:00,
2013-11-04 05:21:00,30.2,24.8,30.60,ENE,58,0.0,0.0,80,0.00,,,0.00,0,LWC V2.00 B2112,2013-11-04 10:21:00,
2013-11-04 05:26:00,29.9,25.4,30.60,ENE,58,0.0,0.0,83,0.00,,,0.00,0,LWC V2.00 B2112,2013-11-04 10:26:00,
2013-11-04 05:31:00,29.7,25.2,30.59,ENE,58,0.0,0.0,83,0.00,,,0.00,0,LWC V2.00 B2112,2013-11-04 10:31:00,
2013-11-04 05:36:00,29.6,24.8,30.59,ENE,58,0.0,0.0,82,0.00,,,0.00,0,LWC V2.00 B2112,2013-11-04 10:36:00,
2013-11-04 05:41:00,29.7,24.6,30.59,ENE,58,0.0,0.0,81,0.00,,,0.00,0,LWC V2.00 B2112,2013-11-04 10:41:00,
2013-11-04 05:46:00,29.7,24.3,30.59,ENE,58,0.0,0.0,80,0.00,,,0.00,0,LWC V2.00 B2112,2013-11-04 10:46:00,
2013-11-04 05:51:00,29.7,24.3,30.60,ENE,58,0.0,0.0,80,0.00,,,0.00,0,LWC V2.00 B2112,2013-11-04 10:51:00,
2013-11-04 05:56:00,29.8,24.1,30.60,ENE,58,0.0,0.0,79,0.00,,,0.00,0,LWC V2.00 B2112,2013-11-04 10:56:00,
2013-11-04 06:01:00,29.8,24.4,30.60,ENE,58,0.0,0.0,80,0.00,,,0.00,0,LWC V2.00 B2112,2013-11-04 11:01:00,
2013-11-04 06:06:00,29.9,24.2,30.61,ENE,58,0.0,0.0,79,0.00,,,0.00,0,LWC V2.00 B2112,2013-11-04 11:06:00,
2013-11-04 06:11:00,29.8,24.4,30.61,ENE,58,0.0,0.0,80,0.00,,,0.00,0,LWC V2.00 B2112,2013-11-04 11:11:00,
2013-11-04 06:14:00,29.8,24.1,30.61,ENE,58,0.0,1.0,79,0.00,,,0.00,0,LWC V2.00 B2112,2013-11-04 11:14:00,
2013-11-04 06:19:00,29.7,24.0,30.61,ENE,58,0.0,0.0,79,0.00,,,0.00,0,LWC V2.00 B2112,2013-11-04 11:19:00,
2013-11-04 06:22:00,29.8,24.1,30.61,ENE,58,0.0,0.0,79,0.00,,,0.00,0,LWC V2.00 B2112,2013-11-04 11:22:00,
2013-11-04 06:27:00,29.6,24.5,30.61,ENE,58,0.0,0.0,81,0.00,,,0.00,0,LWC V2.00 B2112,2013-11-04 11:27:00,
2013-11-04 06:32:00,29.3,24.8,30.61,ENE,58,0.0,0.0,83,0.00,,,0.00,0,LWC V2.00 B2112,2013-11-04 11:32:00,
2013-11-04 06:37:00,29.2,25.0,30.62,ENE,58,0.0,0.0,84,0.00,,,0.00,0,LWC V2.00 B2112,2013-11-04 11:37:00,
2013-11-04 06:42:00,29.0,24.8,30.62,ENE,58,0.0,0.0,84,0.00,,,0.00,0,LWC V2.00 B2112,2013-11-04 11:42:00,
2013-11-04 06:47:00,28.9,25.0,30.63,ENE,58,0.0,0.0,85,0.00,,,0.00,5,LWC V2.00 B2112,2013-11-04 11:47:00,
2013-11-04 06:52:00,28.9,25.0,30.63,ENE,58,0.0,0.0,85,0.00,,,0.00,7,LWC V2.00 B2112,2013-11-04 11:52:00,
2013-11-04 06:57:00,28.8,25.2,30.64,ENE,58,0.0,0.0,86,0.00,,,0.00,9,LWC V2.00 B2112,2013-11-04 11:57:00,
2013-11-04 07:02:00,28.9,25.2,30.64,ENE,58,0.0,0.0,86,0.00,,,0.00,11,LWC V2.00 B2112,2013-11-04 12:02:00,
2013-11-04 07:07:00,29.0,25.1,30.64,ENE,58,0.0,0.0,85,0.00,,,0.00,12,LWC V2.00 B2112,2013-11-04 12:07:00,
2013-11-04 07:12:00,29.3,25.4,30.65,ENE,58,0.0,0.0,85,0.00,,,0.00,11,LWC V2.00 B2112,2013-11-04 12:12:00,
2013-11-04 07:17:00,29.4,25.5,30.65,East,88,0.0,1.0,85,0.00,,,0.00,12,LWC V2.00 B2112,2013-11-04 12:17:00,
2013-11-04 07:22:00,29.4,25.5,30.65,East,88,0.0,0.0,85,0.00,,,0.00,14,LWC V2.00 B2112,2013-11-04 12:22:00,
2013-11-04 07:27:00,29.8,25.6,30.65,East,88,1.0,1.0,84,0.00,,,0.00,14,LWC V2.00 B2112,2013-11-04 12:27:00,
2013-11-04 07:32:00,30.3,25.2,30.64,NE,55,1.0,4.0,81,0.00,,,0.00,16,LWC V2.00 B2112,2013-11-04 12:32:00,
2013-11-04 07:37:00,30.9,25.2,30.64,ENE,70,3.0,3.0,79,0.00,,,0.00,18,LWC V2.00 B2112,2013-11-04 12:37:00,
2013-11-04 07:42:00,31.4,24.7,30.64,NE,45,3.0,4.0,76,0.00,,,0.00,19,LWC V2.00 B2112,2013-11-04 12:42:00,
2013-11-04 07:47:00,31.7,24.7,30.64,ENE,67,2.0,3.0,75,0.00,,,0.00,21,LWC V2.00 B2112,2013-11-04 12:47:00,
2013-11-04 07:52:00,32.0,24.7,30.64,ENE,67,1.0,6.0,74,0.00,,,0.00,21,LWC V2.00 B2112,2013-11-04 12:52:00,
2013-11-04 07:57:00,32.3,24.6,30.65,ENE,72,3.0,4.0,73,0.00,,,0.00,23,LWC V2.00 B2112,2013-11-04 12:57:00,
2013-11-04 08:02:00,32.6,24.3,30.64,NE,45,3.0,6.0,71,0.00,,,0.00,33,LWC V2.00 B2112,2013-11-04 13:02:00,
2013-11-04 08:07:00,33.0,24.6,30.64,ENE,61,1.0,3.0,71,0.00,,,0.00,42,LWC V2.00 B2112,2013-11-04 13:07:00,
2013-11-04 08:12:00,33.4,24.7,30.64,NE,39,4.0,5.0,70,0.00,,,0.00,49,LWC V2.00 B2112,2013-11-04 13:12:00,
2013-11-04 08:17:00,33.9,24.5,30.64,ENE,77,2.0,4.0,68,0.00,,,0.00,56,LWC V2.00 B2112,2013-11-04 13:17:00,
2013-11-04 08:22:00,34.5,24.3,30.65,East,85,1.0,5.0,66,0.00,,,0.00,63,LWC V2.00 B2112,2013-11-04 13:22:00,
2013-11-04 08:27:00,34.8,23.5,30.64,East,89,5.0,7.0,63,0.00,,,0.00,51,LWC V2.00 B2112,2013-11-04 13:27:00,
2013-11-04 08:32:00,35.1,23.0,30.65,ENE,74,3.0,6.0,61,0.00,,,0.00,40,LWC V2.00 B2112,2013-11-04 13:32:00,
2013-11-04 08:37:00,35.2,22.7,30.65,ENE,74,3.0,6.0,60,0.00,,,0.00,46,LWC V2.00 B2112,2013-11-04 13:37:00,
2013-11-04 08:42:00,35.5,23.0,30.66,NE,50,3.0,8.0,60,0.00,,,0.00,42,LWC V2.00 B2112,2013-11-04 13:42:00,
2013-11-04 08:47:00,35.9,23.0,30.66,East,82,3.0,6.0,59,0.00,,,0.00,42,LWC V2.00 B2112,2013-11-04 13:47:00,
2013-11-04 08:52:00,36.0,22.7,30.66,ENE,57,2.0,11.0,58,0.00,,,0.00,40,LWC V2.00 B2112,2013-11-04 13:52:00,
2013-11-04 08:57:00,36.1,22.4,30.66,East,95,2.0,8.0,57,0.00,,,0.00,49,LWC V2.00 B2112,2013-11-04 13:57:00,
2013-11-04 09:02:00,36.4,22.2,30.66,ENE,59,8.0,9.0,56,0.00,,,0.00,56,LWC V2.00 B2112,2013-11-04 14:02:00,
2013-11-04 09:07:00,36.6,22.0,30.66,ENE,63,4.0,5.0,55,0.00,,,0.00,46,LWC V2.00 B2112,2013-11-04 14:07:00,
2013-11-04 09:12:00,36.9,21.8,30.66,East,89,1.0,6.0,54,0.00,,,0.00,51,LWC V2.00 B2112,2013-11-04 14:12:00,
2013-11-04 09:17:00,37.1,22.4,30.66,ENE,73,3.0,5.0,55,0.00,,,0.00,49,LWC V2.00 B2112,2013-11-04 14:17:00,
2013-11-04 09:22:00,37.4,21.9,30.66,East,86,2.0,3.0,53,0.00,,,0.00,62,LWC V2.00 B2112,2013-11-04 14:22:00,
2013-11-04 09:27:00,37.7,22.6,30.66,East,82,3.0,5.0,54,0.00,,,0.00,53,LWC V2.00 B2112,2013-11-04 14:27:00,
2013-11-04 09:32:00,37.9,22.3,30.66,NE,45,0.0,3.0,53,0.00,,,0.00,49,LWC V2.00 B2112,2013-11-04 14:32:00,
2013-11-04 09:37:00,38.2,22.1,30.66,NNE,33,3.0,3.0,52,0.00,,,0.00,100,LWC V2.00 B2112,2013-11-04 14:37:00,
2013-11-04 09:42:00,38.4,21.9,30.66,NE,55,1.0,3.0,51,0.00,,,0.00,65,LWC V2.00 B2112,2013-11-04 14:42:00,
2013-11-04 09:47:00,38.6,21.1,30.67,East,81,3.0,6.0,49,0.00,,,0.00,70,LWC V2.00 B2112,2013-11-04 14:47:00,
2013-11-04 09:52:00,38.9,21.4,30.67,WNW,282,0.0,2.0,49,0.00,,,0.00,56,LWC V2.00 B2112,2013-11-04 14:52:00,
2013-11-04 09:57:00,39.5,20.5,30.67,ENE,75,0.0,3.0,46,0.00,,,0.00,65,LWC V2.00 B2112,2013-11-04 14:57:00,
2013-11-04 10:02:00,39.7,20.6,30.67,ESE,105,1.0,4.0,46,0.00,,,0.00,69,LWC V2.00 B2112,2013-11-04 15:02:00,
2013-11-04 10:07:00,39.9,21.3,30.67,NE,43,2.0,4.0,47,0.00,,,0.00,120,LWC V2.00 B2112,2013-11-04 15:07:00,
2013-11-04 10:12:00,40.3,21.7,30.67,ENE,70,0.0,3.0,47,0.00,,,0.00,246,LWC V2.00 B2112,2013-11-04 15:12:00,
2013-11-04 10:17:00,40.8,21.6,30.67,ENE,76,1.0,5.0,46,0.00,,,0.00,598,LWC V2.00 B2112,2013-11-04 15:17:00,
2013-11-04 10:22:00,40.9,21.2,30.67,WNW,284,1.0,2.0,45,0.00,,,0.00,513,LWC V2.00 B2112,2013-11-04 15:22:00,
2013-11-04 10:27:00,41.2,21.5,30.67,East,82,0.0,2.0,45,0.00,,,0.00,570,LWC V2.00 B2112,2013-11-04 15:27:00,
2013-11-04 10:32:00,41.4,21.1,30.66,East,82,0.0,4.0,44,0.00,,,0.00,461,LWC V2.00 B2112,2013-11-04 15:32:00,
2013-11-04 10:37:00,41.9,21.6,30.66,ENE,60,5.0,5.0,44,0.00,,,0.00,594,LWC V2.00 B2112,2013-11-04 15:37:00,
2013-11-04 10:42:00,41.7,21.9,30.66,ENE,76,1.0,5.0,45,0.00,,,0.00,450,LWC V2.00 B2112,2013-11-04 15:42:00,
2013-11-04 10:47:00,42.1,22.3,30.66,ENE,72,3.0,6.0,45,0.00,,,0.00,397,LWC V2.00 B2112,2013-11-04 15:47:00,
2013-11-04 10:52:00,42.0,21.7,30.66,ENE,74,0.0,3.0,44,0.00,,,0.00,290,LWC V2.00 B2112,2013-11-04 15:52:00,
2013-11-04 10:57:00,41.7,21.4,30.66,SSW,199,0.0,3.0,44,0.00,,,0.00,204,LWC V2.00 B2112,2013-11-04 15:57:00,
2013-11-04 11:02:00,41.9,21.6,30.66,SSW,201,0.0,1.0,44,0.00,,,0.00,290,LWC V2.00 B2112,2013-11-04 16:02:00,
2013-11-04 11:07:00,42.3,22.5,30.66,NE,53,4.0,4.0,45,0.00,,,0.00,397,LWC V2.00 B2112,2013-11-04 16:07:00,
2013-11-04 11:12:00,42.3,22.0,30.66,ENE,57,0.0,2.0,44,0.00,,,0.00,271,LWC V2.00 B2112,2013-11-04 16:12:00,
2013-11-04 11:17:00,42.8,21.9,30.65,West,266,0.0,0.0,43,0.00,,,0.00,336,LWC V2.00 B2112,2013-11-04 16:17:00,
2013-11-04 11:22:00,42.3,22.0,30.66,East,91,0.0,3.0,44,0.00,,,0.00,255,LWC V2.00 B2112,2013-11-04 16:22:00,
2013-11-04 11:27:00,43.1,22.1,30.66,ENE,60,2.0,6.0,43,0.00,,,0.00,376,LWC V2.00 B2112,2013-11-04 16:27:00,
2013-11-04 11:32:00,43.3,21.8,30.65,East,91,0.0,3.0,42,0.00,,,0.00,654,LWC V2.00 B2112,2013-11-04 16:32:00,
2013-11-04 11:37:00,43.6,22.6,30.65,East,93,1.0,4.0,43,0.00,,,0.00,540,LWC V2.00 B2112,2013-11-04 16:37:00,
2013-11-04 11:42:00,43.3,21.2,30.65,ENE,72,0.0,0.0,41,0.00,,,0.00,584,LWC V2.00 B2112,2013-11-04 16:42:00,
2013-11-04 11:47:00,43.8,21.6,30.65,East,97,1.0,3.0,41,0.00,,,0.00,515,LWC V2.00 B2112,2013-11-04 16:47:00,
2013-11-04 11:52:00,43.6,21.5,30.65,ESE,112,4.0,5.0,41,0.00,,,0.00,496,LWC V2.00 B2112,2013-11-04 16:52:00,
2013-11-04 11:57:00,43.7,22.1,30.65,East,80,1.0,3.0,42,0.00,,,0.00,475,LWC V2.00 B2112,2013-11-04 16:57:00,
2013-11-04 12:02:00,44.1,21.3,30.64,East,91,0.0,5.0,40,0.00,,,0.00,522,LWC V2.00 B2112,2013-11-04 17:02:00,
2013-11-04 12:07:00,44.5,21.7,30.64,ENE,71,0.0,3.0,40,0.00,,,0.00,554,LWC V2.00 B2112,2013-11-04 17:07:00,
2013-11-04 12:12:00,44.2,20.8,30.64,East,95,5.0,5.0,39,0.00,,,0.00,482,LWC V2.00 B2112,2013-11-04 17:12:00,
2013-11-04 12:17:00,44.0,22.4,30.64,East,97,0.0,2.0,42,0.00,,,0.00,397,LWC V2.00 B2112,2013-11-04 17:17:00,
2013-11-04 12:22:00,43.9,22.3,30.64,ENE,66,0.0,2.0,42,0.00,,,0.00,341,LWC V2.00 B2112,2013-11-04 17:22:00,
2013-11-04 12:27:00,44.2,22.6,30.64,ENE,66,0.0,2.0,42,0.00,,,0.00,364,LWC V2.00 B2112,2013-11-04 17:27:00,
2013-11-04 12:32:00,44.4,22.8,30.64,ENE,74,0.0,1.0,42,0.00,,,0.00,366,LWC V2.00 B2112,2013-11-04 17:32:00,
2013-11-04 12:37:00,44.7,21.9,30.64,ENE,78,0.0,3.0,40,0.00,,,0.00,287,LWC V2.00 B2112,2013-11-04 17:37:00,
2013-11-04 12:42:00,44.0,22.4,30.64,East,92,0.0,1.0,42,0.00,,,0.00,253,LWC V2.00 B2112,2013-11-04 17:42:00,
2013-11-04 12:47:00,43.7,21.0,30.64,South,176,0.0,2.0,40,0.00,,,0.00,253,LWC V2.00 B2112,2013-11-04 17:47:00,
2013-11-04 12:52:00,43.7,21.6,30.63,SSE,149,1.0,1.0,41,0.00,,,0.00,227,LWC V2.00 B2112,2013-11-04 17:52:00,
2013-11-04 12:57:00,44.0,21.8,30.63,ENE,78,2.0,3.0,41,0.00,,,0.00,223,LWC V2.00 B2112,2013-11-04 17:57:00,
2013-11-04 13:02:00,44.1,22.5,30.63,SSE,153,2.0,2.0,42,0.00,,,0.00,211,LWC V2.00 B2112,2013-11-04 18:02:00,
2013-11-04 13:07:00,44.5,23.4,30.63,SSE,147,0.0,0.0,43,0.00,,,0.00,195,LWC V2.00 B2112,2013-11-04 18:07:00,
2013-11-04 13:12:00,44.3,22.1,30.63,ENE,78,3.0,3.0,41,0.00,,,0.00,179,LWC V2.00 B2112,2013-11-04 18:12:00,
2013-11-04 13:17:00,44.2,23.7,30.63,ENE,78,0.0,1.0,44,0.00,,,0.00,169,LWC V2.00 B2112,2013-11-04 18:17:00,
2013-11-04 13:22:00,43.8,22.2,30.63,ENE,78,0.0,0.0,42,0.00,,,0.00,156,LWC V2.00 B2112,2013-11-04 18:22:00,
2013-11-04 13:27:00,43.8,21.6,30.63,ENE,60,0.0,0.0,41,0.00,,,0.00,146,LWC V2.00 B2112,2013-11-04 18:27:00,
2013-11-04 13:32:00,43.9,21.7,30.62,ENE,60,0.0,1.0,41,0.00,,,0.00,156,LWC V2.00 B2112,2013-11-04 18:32:00,
2013-11-04 13:37:00,44.1,23.0,30.62,ENE,60,0.0,0.0,43,0.00,,,0.00,190,LWC V2.00 B2112,2013-11-04 18:37:00,
2013-11-04 13:42:00,44.1,21.3,30.62,ENE,58,2.0,4.0,40,0.00,,,0.00,287,LWC V2.00 B2112,2013-11-04 18:42:00,
2013-11-04 13:47:00,44.7,22.5,30.61,ENE,58,0.0,0.0,41,0.00,,,0.00,415,LWC V2.00 B2112,2013-11-04 18:47:00,
2013-11-04 13:52:00,45.1,22.2,30.61,ENE,75,0.0,4.0,40,0.00,,,0.00,281,LWC V2.00 B2112,2013-11-04 18:52:00,
2013-11-04 13:57:00,45.1,22.8,30.61,East,82,0.0,1.0,41,0.00,,,0.00,316,LWC V2.00 B2112,2013-11-04 18:57:00,
2013-11-04 14:02:00,45.0,22.1,30.61,NE,54,0.0,0.0,40,0.00,,,0.00,316,LWC V2.00 B2112,2013-11-04 19:02:00,
2013-11-04 14:07:00,45.8,23.5,30.61,NW,308,0.0,0.0,41,0.00,,,0.00,434,LWC V2.00 B2112,2013-11-04 19:07:00,
2013-11-04 14:12:00,46.3,22.7,30.61,NNE,30,3.0,3.0,39,0.00,,,0.00,455,LWC V2.00 B2112,2013-11-04 19:12:00,
2013-11-04 14:17:00,45.9,22.4,30.62,NE,45,0.0,1.0,39,0.00,,,0.00,411,LWC V2.00 B2112,2013-11-04 19:17:00,
2013-11-04 14:22:00,46.2,22.0,30.62,NE,45,0.0,0.0,38,0.00,,,0.00,311,LWC V2.00 B2112,2013-11-04 19:22:00,
2013-11-04 14:27:00,46.1,23.1,30.62,East,81,2.0,2.0,40,0.00,,,0.00,399,LWC V2.00 B2112,2013-11-04 19:27:00,
2013-11-04 14:32:00,46.2,23.2,30.62,East,81,0.0,0.0,40,0.00,,,0.00,503,LWC V2.00 B2112,2013-11-04 19:32:00,
2013-11-04 14:37:00,46.0,21.2,30.62,East,92,0.0,1.0,37,0.00,,,0.00,501,LWC V2.00 B2112,2013-11-04 19:37:00,
2013-11-04 14:42:00,46.0,21.8,30.62,NE,56,0.0,2.0,38,0.00,,,0.00,197,LWC V2.00 B2112,2013-11-04 19:42:00,
2013-11-04 14:47:00,45.2,22.3,30.62,East,80,0.0,1.0,40,0.00,,,0.00,98,LWC V2.00 B2112,2013-11-04 19:47:00,
2013-11-04 14:52:00,44.6,22.4,30.62,East,80,0.0,0.0,41,0.00,,,0.00,79,LWC V2.00 B2112,2013-11-04 19:52:00,
2013-11-04 14:57:00,44.3,22.1,30.63,East,80,0.0,1.0,41,0.00,,,0.00,93,LWC V2.00 B2112,2013-11-04 19:57:00,
2013-11-04 15:02:00,44.3,23.2,30.63,East,80,0.0,0.0,43,0.00,,,0.00,91,LWC V2.00 B2112,2013-11-04 20:02:00,
2013-11-04 15:07:00,44.5,22.9,30.63,East,80,0.0,0.0,42,0.00,,,0.00,102,LWC V2.00 B2112,2013-11-04 20:07:00,
2013-11-04 15:12:00,44.3,21.5,30.63,East,80,0.0,0.0,40,0.00,,,0.00,104,LWC V2.00 B2112,2013-11-04 20:12:00,
2013-11-04 15:17:00,44.3,22.7,30.62,ENE,66,0.0,1.0,42,0.00,,,0.00,95,LWC V2.00 B2112,2013-11-04 20:17:00,
2013-11-04 15:22:00,44.3,22.1,30.62,ENE,66,0.0,0.0,41,0.00,,,0.00,83,LWC V2.00 B2112,2013-11-04 20:22:00,
2013-11-04 15:27:00,44.4,22.8,30.63,ENE,66,0.0,0.0,42,0.00,,,0.00,72,LWC V2.00 B2112,2013-11-04 20:27:00,
2013-11-04 15:32:00,44.2,22.6,30.63,ENE,70,0.0,0.0,42,0.00,,,0.00,62,LWC V2.00 B2112,2013-11-04 20:32:00,
2013-11-04 15:37:00,44.0,21.8,30.64,ENE,70,0.0,0.0,41,0.00,,,0.00,65,LWC V2.00 B2112,2013-11-04 20:37:00,
2013-11-04 15:42:00,43.7,22.1,30.63,ENE,70,0.0,0.0,42,0.00,,,0.00,58,LWC V2.00 B2112,2013-11-04 20:42:00,
2013-11-04 15:47:00,43.7,22.7,30.62,ENE,70,0.0,0.0,43,0.00,,,0.00,86,LWC V2.00 B2112,2013-11-04 20:47:00,
2013-11-04 15:52:00,43.7,22.1,30.62,ENE,74,0.0,1.0,42,0.00,,,0.00,81,LWC V2.00 B2112,2013-11-04 20:52:00,
2013-11-04 15:57:00,43.8,22.8,30.61,East,86,0.0,2.0,43,0.00,,,0.00,84,LWC V2.00 B2112,2013-11-04 20:57:00,
2013-11-04 16:02:00,44.0,22.4,30.62,SE,128,0.0,0.0,42,0.00,,,0.00,69,LWC V2.00 B2112,2013-11-04 21:02:00,
2013-11-04 16:07:00,43.9,22.3,30.62,ESE,118,0.0,2.0,42,0.00,,,0.00,46,LWC V2.00 B2112,2013-11-04 21:07:00,
2013-11-04 16:12:00,43.7,22.7,30.62,ESE,120,0.0,0.0,43,0.00,,,0.00,39,LWC V2.00 B2112,2013-11-04 21:12:00,
2013-11-04 16:17:00,43.4,22.4,30.62,East,90,0.0,0.0,43,0.00,,,0.00,42,LWC V2.00 B2112,2013-11-04 21:17:00,
2013-11-04 16:22:00,43.2,22.8,30.62,East,87,0.0,0.0,44,0.00,,,0.00,35,LWC V2.00 B2112,2013-11-04 21:22:00,
2013-11-04 16:27:00,43.1,22.7,30.62,SSE,147,0.0,0.0,44,0.00,,,0.00,23,LWC V2.00 B2112,2013-11-04 21:27:00,
2013-11-04 16:32:00,42.7,23.4,30.62,SSE,147,0.0,0.0,46,0.00,,,0.00,25,LWC V2.00 B2112,2013-11-04 21:32:00,
2013-11-04 16:37:00,42.6,23.8,30.62,SSE,147,0.0,0.0,47,0.00,,,0.00,19,LWC V2.00 B2112,2013-11-04 21:37:00,
2013-11-04 16:42:00,42.2,25.4,30.62,SSE,147,0.0,0.0,51,0.00,,,0.00,16,LWC V2.00 B2112,2013-11-04 21:42:00,
2013-11-04 16:47:00,42.1,26.2,30.62,SSE,147,0.0,0.0,53,0.00,,,0.00,9,LWC V2.00 B2112,2013-11-04 21:47:00,
2013-11-04 16:52:00,41.9,26.5,30.62,SSE,147,0.0,0.0,54,0.00,,,0.00,5,LWC V2.00 B2112,2013-11-04 21:52:00,
2013-11-04 16:57:00,41.8,24.5,30.63,West,276,0.0,1.0,50,0.00,,,0.00,0,LWC V2.00 B2112,2013-11-04 21:57:00,
2013-11-04 17:02:00,41.7,25.4,30.64,West,276,0.0,0.0,52,0.00,,,0.00,0,LWC V2.00 B2112,2013-11-04 22:02:00,
2013-11-04 17:07:00,41.5,25.7,30.64,West,278,0.0,0.0,53,0.00,,,0.00,0,LWC V2.00 B2112,2013-11-04 22:07:00,
2013-11-04 17:12:00,41.1,25.3,30.63,West,278,0.0,0.0,53,0.00,,,0.00,0,LWC V2.00 B2112,2013-11-04 22:12:00,
2013-11-04 17:17:00,40.8,25.0,30.63,West,278,0.0,0.0,53,0.00,,,0.00,0,LWC V2.00 B2112,2013-11-04 22:17:00,
2013-11-04 17:22:00,40.4,24.2,30.63,West,278,0.0,0.0,52,0.00,,,0.00,0,LWC V2.00 B2112,2013-11-04 22:22:00,
2013-11-04 17:27:00,40.2,24.9,30.63,West,278,0.0,0.0,54,0.00,,,0.00,0,LWC V2.00 B2112,2013-11-04 22:27:00,
2013-11-04 17:32:00,40.0,24.7,30.62,West,278,0.0,0.0,54,0.00,,,0.00,0,LWC V2.00 B2112,2013-11-04 22:32:00,
2013-11-04 17:37:00,39.9,25.9,30.62,West,278,0.0,0.0,57,0.00,,,0.00,0,LWC V2.00 B2112,2013-11-04 22:37:00,
2013-11-04 17:42:00,39.6,26.9,30.62,West,278,0.0,0.0,60,0.00,,,0.00,0,LWC V2.00 B2112,2013-11-04 22:42:00,
2013-11-04 17:47:00,39.2,26.9,30.62,West,278,0.0,0.0,61,0.00,,,0.00,0,LWC V2.00 B2112,2013-11-04 22:47:00,
2013-11-04 17:52:00,39.5,25.5,30.63,West,278,0.0,0.0,57,0.00,,,0.00,0,LWC V2.00 B2112,2013-11-04 22:52:00,
2013-11-04 17:57:00,39.5,26.0,30.62,West,278,0.0,0.0,58,0.00,,,0.00,0,LWC V2.00 B2112,2013-11-04 22:57:00,
2013-11-04 18:02:00,39.4,26.7,30.62,West,278,0.0,0.0,60,0.00,,,0.00,0,LWC V2.00 B2112,2013-11-04 23:02:00,
2013-11-04 18:07:00,39.2,27.7,30.62,West,278,0.0,0.0,63,0.00,,,0.00,0,LWC V2.00 B2112,2013-11-04 23:07:00,
2013-11-04 18:12:00,39.1,27.2,30.63,West,278,0.0,0.0,62,0.00,,,0.00,0,LWC V2.00 B2112,2013-11-04 23:12:00,
2013-11-04 18:17:00,38.9,27.8,30.63,West,278,0.0,0.0,64,0.00,,,0.00,0,LWC V2.00 B2112,2013-11-04 23:17:00,
2013-11-04 18:22:00,38.8,27.7,30.64,West,278,0.0,0.0,64,0.00,,,0.00,0,LWC V2.00 B2112,2013-11-04 23:22:00,
2013-11-04 18:27:00,38.9,27.8,30.63,West,278,0.0,0.0,64,0.00,,,0.00,0,LWC V2.00 B2112,2013-11-04 23:27:00,
2013-11-04 18:32:00,38.6,28.2,30.62,West,278,0.0,0.0,66,0.00,,,0.00,0,LWC V2.00 B2112,2013-11-04 23:32:00,
2013-11-04 18:37:00,38.6,28.2,30.63,West,278,0.0,0.0,66,0.00,,,0.00,0,LWC V2.00 B2112,2013-11-04 23:37:00,
2013-11-04 18:42:00,38.5,28.1,30.63,West,278,0.0,0.0,66,0.00,,,0.00,0,LWC V2.00 B2112,2013-11-04 23:42:00,
2013-11-04 18:47:00,38.4,27.3,30.63,West,278,0.0,0.0,64,0.00,,,0.00,0,LWC V2.00 B2112,2013-11-04 23:47:00,
2013-11-04 18:52:00,38.2,27.1,30.64,West,278,0.0,0.0,64,0.00,,,0.00,0,LWC V2.00 B2112,2013-11-04 23:52:00,
2013-11-04 18:57:00,38.1,26.2,30.63,West,278,0.0,0.0,62,0.00,,,0.00,0,LWC V2.00 B2112,2013-11-04 23:57:00,
2013-11-04 19:02:00,38.0,26.2,30.64,West,278,0.0,0.0,62,0.00,,,0.00,0,LWC V2.00 B2112,2013-11-05 00:02:00,
2013-11-04 19:07:00,37.7,26.6,30.64,West,278,0.0,0.0,64,0.00,,,0.00,0,LWC V2.00 B2112,2013-11-05 00:07:00,
2013-11-04 19:12:00,37.5,26.8,30.64,West,278,0.0,0.0,65,0.00,,,0.00,0,LWC V2.00 B2112,2013-11-05 00:12:00,
2013-11-04 19:17:00,37.1,26.4,30.64,West,278,0.0,0.0,65,0.00,,,0.00,0,LWC V2.00 B2112,2013-11-05 00:17:00,
2013-11-04 19:22:00,37.3,26.6,30.64,West,278,0.0,0.0,65,0.00,,,0.00,0,LWC V2.00 B2112,2013-11-05 00:22:00,
2013-11-04 19:27:00,37.4,26.7,30.64,West,278,0.0,0.0,65,0.00,,,0.00,0,LWC V2.00 B2112,2013-11-05 00:27:00,
2013-11-04 19:32:00,37.4,27.8,30.65,West,278,0.0,0.0,68,0.00,,,0.00,0,LWC V2.00 B2112,2013-11-05 00:32:00,
2013-11-04 19:37:00,37.1,27.5,30.65,West,278,0.0,0.0,68,0.00,,,0.00,0,LWC V2.00 B2112,2013-11-05 00:37:00,
2013-11-04 19:42:00,37.0,27.8,30.64,West,278,0.0,0.0,69,0.00,,,0.00,0,LWC V2.00 B2112,2013-11-05 00:42:00,
2013-11-04 19:47:00,36.8,27.6,30.65,West,278,0.0,0.0,69,0.00,,,0.00,0,LWC V2.00 B2112,2013-11-05 00:47:00,
2013-11-04 19:52:00,36.6,27.4,30.65,West,278,0.0,0.0,69,0.00,,,0.00,0,LWC V2.00 B2112,2013-11-05 00:52:00,
2013-11-04 19:57:00,36.3,27.8,30.65,West,278,0.0,0.0,71,0.00,,,0.00,0,LWC V2.00 B2112,2013-11-05 00:57:00,
2013-11-04 20:02:00,35.9,27.8,30.65,West,278,0.0,0.0,72,0.00,,,0.00,0,LWC V2.00 B2112,2013-11-05 01:02:00,
2013-11-04 20:07:00,35.7,27.9,30.65,West,278,0.0,0.0,73,0.00,,,0.00,0,LWC V2.00 B2112,2013-11-05 01:07:00,
2013-11-04 20:12:00,35.6,28.1,30.65,West,278,0.0,0.0,74,0.00,,,0.00,0,LWC V2.00 B2112,2013-11-05 01:12:00,
2013-11-04 20:17:00,35.5,28.0,30.65,West,278,0.0,0.0,74,0.00,,,0.00,0,LWC V2.00 B2112,2013-11-05 01:17:00,
2013-11-04 20:22:00,35.7,28.9,30.65,West,278,0.0,0.0,76,0.00,,,0.00,0,LWC V2.00 B2112,2013-11-05 01:22:00,
2013-11-04 20:27:00,35.6,28.5,30.65,West,278,0.0,0.0,75,0.00,,,0.00,0,LWC V2.00 B2112,2013-11-05 01:27:00,
2013-11-04 20:32:00,35.5,28.4,30.65,West,278,0.0,0.0,75,0.00,,,0.00,0,LWC V2.00 B2112,2013-11-05 01:32:00,
2013-11-04 20:37:00,35.4,28.6,30.65,West,278,0.0,0.0,76,0.00,,,0.00,0,LWC V2.00 B2112,2013-11-05 01:37:00,
2013-11-04 20:42:00,35.2,29.0,30.65,West,278,0.0,0.0,78,0.00,,,0.00,0,LWC V2.00 B2112,2013-11-05 01:42:00,
2013-11-04 20:47:00,35.2,29.0,30.65,West,278,0.0,0.0,78,0.00,,,0.00,0,LWC V2.00 B2112,2013-11-05 01:47:00,
2013-11-04 20:52:00,35.2,29.0,30.65,West,278,0.0,0.0,78,0.00,,,0.00,0,LWC V2.00 B2112,2013-11-05 01:52:00,
2013-11-04 20:57:00,35.1,28.9,30.65,West,278,0.0,0.0,78,0.00,,,0.00,0,LWC V2.00 B2112,2013-11-05 01:57:00,
2013-11-04 21:02:00,35.1,28.9,30.65,West,278,0.0,0.0,78,0.00,,,0.00,0,LWC V2.00 B2112,2013-11-05 02:02:00,
2013-11-04 21:07:00,35.3,29.1,30.65,West,278,0.0,0.0,78,0.00,,,0.00,0,LWC V2.00 B2112,2013-11-05 02:07:00,
2013-11-04 21:12:00,35.5,29.6,30.65,West,278,0.0,0.0,79,0.00,,,0.00,0,LWC V2.00 B2112,2013-11-05 02:12:00,
2013-11-04 21:17:00,35.4,29.5,30.65,West,278,0.0,0.0,79,0.00,,,0.00,0,LWC V2.00 B2112,2013-11-05 02:17:00,
2013-11-04 21:22:00,35.2,29.0,30.66,West,278,0.0,0.0,78,0.00,,,0.00,0,LWC V2.00 B2112,2013-11-05 02:22:00,
2013-11-04 21:27:00,35.2,29.0,30.66,West,278,0.0,0.0,78,0.00,,,0.00,0,LWC V2.00 B2112,2013-11-05 02:27:00,
2013-11-04 21:32:00,35.3,29.1,30.67,West,278,0.0,0.0,78,0.00,,,0.00,0,LWC V2.00 B2112,2013-11-05 02:32:00,
2013-11-04 21:37:00,35.2,29.4,30.68,West,278,0.0,0.0,79,0.00,,,0.00,0,LWC V2.00 B2112,2013-11-05 02:37:00,
2013-11-04 21:42:00,35.2,29.4,30.67,West,278,0.0,0.0,79,0.00,,,0.00,0,LWC V2.00 B2112,2013-11-05 02:42:00,
2013-11-04 21:47:00,35.0,29.2,30.67,West,278,0.0,0.0,79,0.00,,,0.00,0,LWC V2.00 B2112,2013-11-05 02:47:00,
2013-11-04 21:52:00,34.9,29.1,30.67,West,278,0.0,0.0,79,0.00,,,0.00,0,LWC V2.00 B2112,2013-11-05 02:52:00,
2013-11-04 21:57:00,34.8,29.3,30.67,West,278,0.0,0.0,80,0.00,,,0.00,0,LWC V2.00 B2112,2013-11-05 02:57:00,
2013-11-04 22:02:00,34.7,29.2,30.67,West,278,0.0,0.0,80,0.00,,,0.00,0,LWC V2.00 B2112,2013-11-05 03:02:00,
2013-11-04 22:07:00,34.6,29.4,30.67,West,278,0.0,0.0,81,0.00,,,0.00,0,LWC V2.00 B2112,2013-11-05 03:07:00,
2013-11-04 22:12:00,34.4,29.2,30.67,West,278,0.0,0.0,81,0.00,,,0.00,0,LWC V2.00 B2112,2013-11-05 03:12:00,
2013-11-04 22:17:00,34.4,29.2,30.67,West,278,0.0,0.0,81,0.00,,,0.00,0,LWC V2.00 B2112,2013-11-05 03:17:00,
2013-11-04 22:22:00,34.3,29.1,30.67,West,278,0.0,0.0,81,0.00,,,0.00,0,LWC V2.00 B2112,2013-11-05 03:22:00,
2013-11-04 22:27:00,34.3,29.1,30.67,West,278,0.0,0.0,81,0.00,,,0.00,0,LWC V2.00 B2112,2013-11-05 03:27:00,
2013-11-04 22:32:00,34.1,29.2,30.67,West,278,0.0,0.0,82,0.00,,,0.00,0,LWC V2.00 B2112,2013-11-05 03:32:00,
2013-11-04 22:37:00,33.9,29.3,30.66,West,278,0.0,0.0,83,0.00,,,0.00,0,LWC V2.00 B2112,2013-11-05 03:37:00,
2013-11-04 22:42:00,33.7,29.4,30.66,West,278,0.0,0.0,84,0.00,,,0.00,0,LWC V2.00 B2112,2013-11-05 03:42:00,
2013-11-04 22:47:00,33.6,29.3,30.66,West,278,0.0,0.0,84,0.00,,,0.00,0,LWC V2.00 B2112,2013-11-05 03:47:00,
2013-11-04 22:52:00,33.5,29.2,30.66,West,278,0.0,0.0,84,0.00,,,0.00,0,LWC V2.00 B2112,2013-11-05 03:52:00,
2013-11-04 22:57:00,33.4,29.1,30.66,West,278,0.0,0.0,84,0.00,,,0.00,0,LWC V2.00 B2112,2013-11-05 03:57:00,
2013-11-04 23:02:00,33.4,29.4,30.67,West,278,0.0,0.0,85,0.00,,,0.00,0,LWC V2.00 B2112,2013-11-05 04:02:00,
2013-11-04 23:07:00,33.3,29.3,30.67,West,278,0.0,0.0,85,0.00,,,0.00,0,LWC V2.00 B2112,2013-11-05 04:07:00,
2013-11-04 23:12:00,33.1,28.8,30.67,West,278,0.0,0.0,84,0.00,,,0.00,0,LWC V2.00 B2112,2013-11-05 04:12:00,
2013-11-04 23:17:00,33.1,29.1,30.66,West,278,0.0,0.0,85,0.00,,,0.00,0,LWC V2.00 B2112,2013-11-05 04:17:00,
2013-11-04 23:22:00,33.1,29.1,30.66,West,278,0.0,0.0,85,0.00,,,0.00,0,LWC V2.00 B2112,2013-11-05 04:22:00,
2013-11-04 23:27:00,33.0,29.0,30.66,West,278,0.0,0.0,85,0.00,,,0.00,0,LWC V2.00 B2112,2013-11-05 04:27:00,
2013-11-04 23:32:00,32.9,28.9,30.65,West,278,0.0,0.0,85,0.00,,,0.00,0,LWC V2.00 B2112,2013-11-05 04:32:00,
2013-11-04 23:37:00,32.9,29.2,30.65,West,278,0.0,0.0,86,0.00,,,0.00,0,LWC V2.00 B2112,2013-11-05 04:37:00,
2013-11-04 23:42:00,32.8,29.1,30.65,West,278,0.0,0.0,86,0.00,,,0.00,0,LWC V2.00 B2112,2013-11-05 04:42:00,
2013-11-04 23:47:00,32.8,29.1,30.65,West,278,0.0,0.0,86,0.00,,,0.00,0,LWC V2.00 B2112,2013-11-05 04:47:00,
2013-11-04 23:52:00,32.8,29.4,30.65,West,278,0.0,0.0,87,0.00,,,0.00,0,LWC V2.00 B2112,2013-11-05 04:52:00,
2013-11-04 23:57:00,33.0,29.6,30.65,West,278,0.0,0.0,87,0.00,,,0.00,0,LWC V2.00 B2112,2013-11-05 04:57:00,